User: anonymous   Login
Location: Hopkins Observatory
(42.6965°N, 73.1843°W)
Time: 12:34:09
(UTC-04:00)
Language:

UOSAT-12 - Orbit

View from above orbital plane
View from above orbital plane
View from above satellite
View from above satellite

Ground track
Ground track

The orbit data is extracted from the following two-line orbital elements,

1 25693U 99021A   15091.46986213  .00000719  00000-0  11136-3 0  9993
2 25693 064.5546 094.5696 0046158 250.4039 269.1102 14.80377316860581
Epoch (UTC): 01 April 2015 11:16:36
Eccentricity: 0.0046158
inclination: 64.5546°
perigee height: 596 km
apogee height: 660 km
right ascension of ascending node: 94.5696°
argument of perigee: 250.4039°
revolutions per day: 14.80377316
mean anomaly at epoch: 269.1102°
orbit number at epoch: 86058

The dashed part of the orbit path shows where the satellite is in the earth's shadow,  

DLR